Del Bajio, Mexico

3:50 AM CST on January 16, 2018 (GMT -0600)
De Guanajuato International

Weather History for MMLO - April, 2012

Change the Weather History Date:

Tuesday, April 10, 2012

  Actual Average Record
Temperature  
Mean Temperature 71 °F -  
Max Temperature 91 °F 85 °F 98 °F (2011)
Min Temperature 51 °F 52 °F 48 °F (2007)
Cooling Degree Days 6    
Growing Degree Days 21 (Base 50)    
Moisture  
Dew Point 43 °F    
Average Humidity 43    
Maximum Humidity 82    
Minimum Humidity 13    
Precipitation  
Precipitation 0.00 in - - ()
Sea Level Pressure  
Sea Level Pressure 30.09 in    
Wind  
Wind Speed 3 mph ()    
Max Wind Speed 9 mph    
Max Gust Speed -    
Visibility 8.7 miles    
Events      
Averages and records for this station are not official NWS values.
T = Trace of Precipitation, MM = Missing Value Source: Averaged Metar Reports

Daily Weather History Graph

Daily Weather History Graph

Search for Another Location

Airport or City:

Trip Planner

Search our weather history database for the weather conditions in past years. The results will help you decide how hot, cold, wet, or windy it might be!

Date:

Astronomy

Apr. 10, 2012 Rise Set
Actual Time 7:30 AM CDT 8:03 PM CDT
Civil Twilight 7:08 AM CDT 8:26 PM CDT
Nautical Twilight 6:41 AM CDT 8:52 PM CDT
Astronomical Twilight 6:15 AM CDT 9:19 PM CDT
Moon No Moon Rise 10:47 AM CDT (4/10)
Length of Visible Light 13h 17m
Length of Day
12h 32m
Waning Gibbous, 79% of the Moon is Illuminated
Apr 10
Waning Gibbous
Apr 13
Last Quarter
Apr 21
New
Apr 29
First Quarter
May 5
Full

Hourly Weather History & Observations

Time (CDT) Temp. Dew Point Humidity Pressure Visibility Wind Dir Wind Speed Gust Speed Precip Events Conditions
12:43 AM 64.4 °F 46.4 °F 52% 29.79 in 8.0 mi SSE 5.8 mph - N/A   Scattered Clouds
1:45 AM 57.2 °F 44.6 °F 63% 30.27 in 8.0 mi Calm Calm - N/A   Scattered Clouds
2:43 AM 57.2 °F 46.4 °F 67% 30.24 in 8.0 mi Calm Calm - N/A   Scattered Clouds
3:46 AM 57.2 °F 46.4 °F 67% 29.79 in 8.0 mi Calm Calm - N/A   Scattered Clouds
4:45 AM 55.4 °F 46.4 °F 72% 30.24 in 8.0 mi Calm Calm - N/A   Clear
5:44 AM 53.6 °F 44.6 °F 72% 30.24 in 8.0 mi Calm Calm - N/A   Clear
6:44 AM 53.6 °F 46.4 °F 77% 29.89 in 8.0 mi NE 8.1 mph - N/A   Clear
7:47 AM 51.8 °F 46.4 °F 82% 30.27 in 8.0 mi Calm Calm - N/A   Partly Cloudy
8:43 AM 60.8 °F 48.2 °F 63% 30.29 in 8.0 mi East 4.6 mph - N/A   Partly Cloudy
9:41 AM 68.0 °F 48.2 °F 49% 29.92 in 9.0 mi ESE 5.8 mph - N/A   Partly Cloudy
10:43 AM 73.4 °F 48.2 °F 41% 30.29 in 9.0 mi Calm Calm - N/A   Partly Cloudy
11:50 AM 80.6 °F 46.4 °F 30% 30.29 in 9.0 mi Calm Calm - N/A   Partly Cloudy
12:40 PM 82.4 °F 42.8 °F 25% 29.84 in 10.0 mi NW 3.5 mph - N/A   Scattered Clouds
1:48 PM 87.8 °F 41.0 °F 19% 30.24 in 10.0 mi Calm Calm - N/A   Scattered Clouds
2:48 PM 89.6 °F 39.2 °F 17% 30.21 in 10.0 mi WSW 4.6 mph - N/A   Scattered Clouds
3:40 PM 89.6 °F 35.6 °F 15% 29.70 in 10.0 mi NE 5.8 mph - N/A   Scattered Clouds
4:53 PM 91.4 °F 33.8 °F 13% 30.12 in 10.0 mi NE 3.5 mph - N/A   Scattered Clouds
5:41 PM 91.4 °F 33.8 °F 13% 30.12 in 10.0 mi Calm Calm - N/A   Scattered Clouds
8:01 PM 78.8 °F 35.6 °F 21% 30.12 in 10.0 mi WSW 9.2 mph - N/A   Scattered Clouds
8:46 PM 73.4 °F 37.4 °F 27% 30.12 in 8.0 mi SSW 4.6 mph - N/A   Partly Cloudy
9:50 PM 71.6 °F 35.6 °F 27% 29.77 in 8.0 mi NE 6.9 mph - N/A   Partly Cloudy
10:50 PM 69.8 °F 42.8 °F 38% 30.15 in 8.0 mi NE 6.9 mph - N/A   Partly Cloudy
11:51 PM 69.8 °F 42.8 °F 38% 30.17 in 8.0 mi ESE 8.1 mph - N/A   Partly Cloudy